Location: Myrnam
(53.6612°N, 111.2289°W)
Time: 14:32:05
(UTC+00:00)

SO-50 - Pass Details

Date: 11 December 2023
Orbit: 607 x 661 km, 64.6° (Epoch: 21 February)

Event Time Altitude Azimuth Distance (km) Brightness Sun altitude
Exits shadow 13:38:28 17° 331° (NNW) 1,627 ? -15.4°
Maximum altitude 13:40:19 21° 3° (N) 1,434 ? -15.2°
Drops below altitude 10° 13:43:49 10° 53° (NE) 2,018 ? -14.7°
Sets 13:46:35 0° 69° (ENE) 2,914 ? -14.3°
